Home   Weather   Barrie   Past weeks

Flag for Canada Past Weather in Barrie, Ontario, Canada — Yesterday and Last 2 Weeks

Now
57 °F

Sunny.


Feels Like: 55 °F
Forecast: 55 / 67 °F
Wind: 8 mph from East

Location: Borden

Current Time: Sep 30, 2016 at 9:31:02 AM

Latest Report: Sep 30, 2016 at 9:00 AM


Visibility: 9 mi

Pressure: 30.36 "Hg

Humidity: 82%

Dew Point: 52 °F

Location of BarrieLocation

Past Weather in Barrie — Graph

°F

Barrie Temperature Yesterday

Maximum temperature yesterday: 61 °F (at 12:00 AM)
Minimum temperature yesterday: 55 °F (at 10:00 PM)
Average temperature yesterday: 58 °F

High & Low Weather Summary for the Past Weeks

 TemperatureHumidityPressure
High82 °F (Sep 19, 3:00 PM)100% (Sep 15, 8:00 AM)30.39 "Hg (Sep 15, 8:00 AM)
Low32 °F (Sep 24, 6:59 AM)26% (Sep 20, 5:00 PM)29.72 "Hg (Sep 27, 2:00 PM)
Average60 °F79%30.09 "Hg
* Reported Sep 15 8:00 AM — Sep 30 8:00 AM, Barrie, Weather by CustomWeather, © 2016

Note: Actual official high and low records may vary slightly from our data, if they occured in-between our weather recording intervals... More about our weather records

Advertising

Barrie Weather History for the Previous 24 Hours

Scroll right to see more
 ConditionsComfort  
Time TempWeatherWind HumidityBarometerVisibility
8:00 AM
Fri, Sep 30
55 °FPassing clouds.6 mph88%30.36 "Hg9 mi
7:00 AM55 °FPassing clouds.6 mph82%30.35 "Hg9 mi
6:04 AM55 °FLight rain. Passing clouds.5 mph82%30.35 "Hg9 mi
5:58 AM55 °FLight rain. Passing clouds.3 mph82%30.35 "Hg9 mi
5:00 AM57 °FClear.5 mph77%30.34 "Hg9 mi
4:00 AM57 °FClear.7 mph77%30.34 "Hg9 mi
3:00 AM57 °FPassing clouds.8 mph77%30.35 "Hg9 mi
2:00 AM57 °FPassing clouds.8 mph77%30.36 "Hg9 mi
1:00 AM57 °FPartly cloudy.7 mph82%30.37 "Hg9 mi
12:00 AM57 °FPassing clouds.10 mph82%30.39 "Hg9 mi
11:00 PM
Thu, Sep 29
55 °FPassing clouds.5 mph94%30.38 "Hg9 mi
10:00 PM55 °FOvercast.No wind94%30.38 "Hg9 mi
9:03 PM57 °FOvercast.8 mph88%30.39 "Hg6 mi
8:00 PM59 °FLight rain. Overcast.8 mph77%30.39 "Hg7 mi
7:00 PM61 °FOvercast.8 mph72%30.37 "Hg9 mi
6:00 PM61 °FMostly cloudy.8 mph72%30.35 "Hg9 mi
5:00 PM59 °FOvercast.5 mph82%30.36 "Hg9 mi
4:46 PM59 °FOvercast.5 mph82%30.35 "Hg9 mi
4:00 PM61 °FOvercast.14 mph72%30.35 "Hg9 mi
3:00 PM59 °FOvercast.6 mph82%30.36 "Hg9 mi
2:00 PM57 °FOvercast.15 mph88%30.35 "Hg9 mi
1:00 PM57 °FOvercast.8 mph88%30.37 "Hg9 mi
12:00 PM59 °FOvercast.13 mph77%30.36 "Hg9 mi
11:00 AM59 °FOvercast.14 mph77%30.35 "Hg9 mi
10:00 AM57 °FOvercast.16 mph82%30.34 "Hg9 mi
9:00 AM57 °FOvercast.13 mph82%30.34 "Hg9 mi
Weather by CustomWeather, © 2016

See weather overviewHow to use our weather pages